GW2492 Weather Reports


time (UTC)temp
C
wind
direction
speed
KPH
gust
KPH
rain 1hr
cm
rain 24hr
cm
rain mn
cm
humidity
%
barometer
mb
20260507093049 12 22 16.1 27.4 0.00 0.10 0.00 81 1018.9
20260507091541 12 44 14.5 25.7 0.00 0.10 0.00 81 1018.7
20260507090044 13 32 17.7 27.4 0.00 0.10 0.00 80 1018.6
20260507084712 13 28 14.5 25.7 0.00 0.10 0.00 81 1018.5
20260507083049 13 57 11.3 20.9 0.00 0.10 0.00 81 1018.4
20260507081545 13 59 8.0 17.7 0.00 0.10 0.00 81 1018.3
20260507080055 13 49 9.7 22.5 0.00 0.10 0.00 81 1018.3
20260507074547 13 62 8.0 20.9 0.00 0.10 0.00 81 1018.2
20260507073053 13 69 12.9 24.1 0.00 0.10 0.00 81 1017.8
20260507071559 13 36 16.1 27.4 0.00 0.10 0.00 81 1017.6
20260507070045 13 38 12.9 22.5 0.00 0.10 0.00 83 1017.5
20260507064550 14 39 11.3 22.5 0.00 0.10 0.00 84 1017.3
20260507063055 14 49 4.8 16.1 0.00 0.10 0.00 86 1016.9
20260507061548 14 59 8.0 14.5 0.00 0.10 0.00 85 1016.8
20260507060046 14 78 6.4 14.5 0.00 0.10 0.00 85 1016.7
20260507054552 14 59 8.0 16.1 0.00 0.10 0.00 84 1017.0
20260507053048 14 53 8.0 17.7 0.00 0.10 0.00 84 1016.9
20260507051545 14 63 9.7 17.7 0.00 0.10 0.00 83 1016.8
20260507050054 14 61 8.0 17.7 0.00 0.10 0.00 83 1016.8
20260507044545 15 38 9.7 16.1 0.00 0.10 0.10 83 1016.6
20260507043045 15 27 8.0 19.3 0.00 0.10 0.10 83 1016.6
20260507041551 15 67 6.4 9.7 0.00 0.10 0.10 82 1016.2
20260507040057 16 68 6.4 12.9 0.00 0.10 0.10 80 1016.0
20260507034553 16 99 4.8 14.5 0.00 0.10 0.10 80 1015.6
20260507033046 16 80 4.8 11.3 0.00 0.10 0.10 79 1015.5
20260507031543 16 114 4.8 12.9 0.00 0.10 0.10 78 1015.1
20260507030043 16 112 6.4 12.9 0.00 0.10 0.10 77 1014.9
20260507024545 17 111 9.7 17.7 0.00 0.10 0.10 76 1015.0
20260507023042 17 90 9.7 17.7 0.00 0.10 0.10 75 1014.6
20260507021546 17 98 9.7 17.7 0.00 0.10 0.10 73 1014.6
20260507020051 17 98 8.0 16.1 0.00 0.10 0.10 72 1014.2
20260507014545 18 107 9.7 17.7 0.00 0.10 0.10 71 1014.0
20260507013047 18 53 9.7 20.9 0.00 0.10 0.10 68 1014.0
20260507011555 19 89 12.9 22.5 0.00 0.10 0.10 67 1014.0
20260507010046 20 103 12.9 19.3 0.00 0.10 0.10 64 1013.5
20260507004542 20 72 8.0 20.9 0.00 0.10 0.10 62 1013.6
20260507003044 20 60 14.5 24.1 0.00 0.10 0.10 62 1013.3
20260507001602 21 49 12.9 19.3 0.00 0.10 0.10 61 1013.3
20260507000056 21 32 12.9 19.3 0.00 0.10 0.10 59 1013.5
20260506234547 21 63 8.0 17.7 0.00 0.10 0.10 60 1013.4
20260506233045 21 49 9.7 17.7 0.00 0.10 0.10 59 1013.2
20260506231547 21 35 11.3 19.3 0.00 0.10 0.10 58 1013.3
20260506230053 21 35 6.4 17.7 0.00 0.10 0.10 59 1013.1
20260506224546 22 61 8.0 20.9 0.00 0.10 0.10 57 1013.1
20260506223045 21 57 8.0 17.7 0.00 0.10 0.10 59 1013.0
20260506221543 21 101 8.0 17.7 0.00 0.10 0.10 60 1013.1
20260506214547 21 80 9.7 16.1 0.00 0.10 0.10 62 1013.1
20260506213046 20 30 1.6 17.7 0.00 0.10 0.10 63 1013.3
20260506211544 21 84 8.0 16.1 0.00 0.10 0.10 62 1013.6
20260506210050 19 40 4.8 19.3 0.00 0.10 0.10 67 1013.5
20260506204541 18 0 6.4 19.3 0.00 0.10 0.10 70 1013.6
20260506203135 18 23 4.8 16.1 0.00 0.10 0.10 70 1013.9
20260506201547 18 38 8.0 19.3 0.00 0.10 0.10 71 1014.2
20260506200049 17 90 6.4 17.7 0.00 0.10 0.10 74 1014.6
20260506194542 16 103 8.0 17.7 0.00 0.10 0.10 75 1014.9
20260506193040 16 64 8.0 19.3 0.00 0.10 0.10 75 1014.8
20260506191552 16 19 9.7 17.7 0.00 0.10 0.10 77 1015.0
20260506190050 15 55 9.7 19.3 0.00 0.10 0.10 77 1015.1
20260506184552 15 22 11.3 24.1 0.00 0.10 0.10 78 1015.1
20260506183043 15 24 12.9 24.1 0.00 0.10 0.10 78 1015.5
20260506181544 15 65 12.9 24.1 0.00 0.10 0.10 78 1015.8
20260506180048 15 34 12.9 27.4 0.00 0.10 0.10 79 1015.9
20260506174550 15 10 16.1 27.4 0.00 0.10 0.10 79 1015.8
20260506173054 14 27 14.5 24.1 0.00 0.10 0.10 80 1016.0
20260506171557 13 40 16.1 25.7 0.00 0.10 0.10 81 1015.9
20260506170043 13 17 17.7 29.0 0.00 0.10 0.10 81 1015.6
20260506164549 13 355 16.1 24.1 0.00 0.10 0.10 82 1015.6
20260506163058 13 45 16.1 27.4 0.00 0.10 0.10 82 1015.7
20260506161544 12 39 19.3 25.7 0.00 0.10 0.10 83 1015.3
20260506160050 12 15 19.3 27.4 0.00 0.10 0.10 83 1015.3
20260506154548 12 5 19.3 25.7 0.00 0.10 0.10 84 1015.0
20260506153050 12 35 17.7 25.7 0.00 0.10 0.10 87 1014.7
20260506151544 12 30 20.9 30.6 0.00 0.10 0.10 87 1014.7
20260506150045 11 19 19.3 32.2 0.00 0.10 0.10 89 1014.5
20260506144546 11 13 20.9 27.4 0.00 0.10 0.10 89 1014.4
20260506143040 11 9 19.3 32.2 0.08 0.10 0.10 89 1014.4
20260506141544 11 14 25.7 35.4 0.08 0.10 0.10 89 1013.7
20260506140046 11 11 19.3 32.2 0.08 0.10 0.10 90 1013.8
20260506134547 11 30 14.5 24.1 0.08 0.08 0.08 89 1014.2
20260506133046 11 25 14.5 30.6 0.03 0.03 0.03 88 1014.2
20260506131547 11 34 24.1 33.8 0.03 0.03 0.03 88 1012.9
20260506130047 11 75 17.7 33.8 0.03 0.03 0.03 87 1012.9
20260506124547 12 39 9.7 33.8 0.00 0.00 0.00 84 1014.8
20260506123043 12 24 16.1 27.4 0.00 0.00 0.00 83 1014.1
20260506121557 12 59 16.1 30.6 0.00 0.00 0.00 82 1012.3
20260506120053 12 40 16.1 25.7 0.00 0.00 0.00 82 1012.0
20260506114552 12 11 19.3 29.0 0.00 0.00 0.00 81 1012.7
20260506113053 12 28 22.5 29.0 0.00 0.00 0.00 81 1012.0
20260506111542 12 20 19.3 27.4 0.00 0.00 0.00 81 1012.0
20260506110056 12 32 17.7 27.4 0.00 0.00 0.00 81 1011.6
20260506104548 12 42 9.7 25.7 0.00 0.00 0.00 81 1011.1
20260506103045 13 30 17.7 25.7 0.00 0.00 0.00 80 1011.1
20260506101605 13 65 19.3 27.4 0.00 0.00 0.00 80 1011.4
20260506100044 13 26 19.3 27.4 0.00 0.00 0.00 79 1011.0
20260506094540 14 50 19.3 30.6 0.00 0.00 0.00 79 1011.0